Flight Track Log - Related Links

Times and Time Zones

All times are in EDT time to prevent confusion due to time zone crossing. See the EJA312 flight status page for this flight to view local times or setup timezone preferences in your user account.

Time Position Orientation Groundspeed Altitude Reporting Facility
EDT Latitude Longitude Course Direction KTS MPH feet Rate Location/Type
02:08PM 32.7943 -96.7602 99° East 252 290 6,200  Level FlightAware ADS-B
02:08PM 32.7953 -96.7429 86° East 275 316 6,600 2,897 Climbing FlightAware ADS-B
02:08PM 32.7985 -96.7258 77° East 277 319 7,600 3,730 Climbing FlightAware ADS-B
02:09PM 32.8053 -96.6864 78° East 281 323 8,900 3,286 Climbing FlightAware ADS-B
02:09PM 32.8105 -96.6550 79° East 296 341 9,900 3,097 Climbing FlightAware ADS-B
02:10PM 32.8219 -96.5885 78° East 305 351 12,100 3,324 Climbing FlightAware ADS-B
02:10PM 32.8319 -96.5300 78° East 314 361 14,000 3,127 Climbing FlightAware ADS-B
02:11PM 32.8426 -96.4667 79° East 321 369 15,800 2,800 Climbing FlightAware ADS-B
02:11PM 32.8537 -96.4010 79° East 330 380 17,500 2,658 Climbing FlightAware ADS-B
02:12PM 32.8654 -96.3267 79° East 339 390 19,300 2,602 Climbing FlightAware ADS-B
02:13PM 32.8667 -96.2472 89° East 345 397 21,100 2,343 Climbing FlightAware ADS-B
02:14PM 32.8686 -96.1222 89° East 345 397 23,400 1,872 Climbing Fort Worth Center
02:15PM 32.8694 -96.0136 89° East 350 403 25,000 1,550 Climbing Fort Worth Center
02:16PM 32.8722 -95.8847 88° East 366 421 26,500 1,513 Climbing Fort Worth Center
02:17PM 32.8744 -95.7464 89° East 391 450 28,000 1,500 Climbing Fort Worth Center
02:18PM 32.8789 -95.6053 88° East 405 466 29,500 1,500 Climbing Fort Worth Center
02:19PM 32.8808 -95.4617 89° East 424 488 31,000 1,450 Climbing Fort Worth Center
02:20PM 32.8889 -95.3181 86° East 430 495 32,400 1,537 Climbing Fort Worth Center
02:21PM 32.9114 -95.1542 81° East 446 513 34,100 1,500 Climbing Fort Worth Center
02:22PM 32.9336 -95.0075 80° East 446 513 35,400 1,059 Climbing Fort Worth Center
02:23PM 32.9578 -94.8583 79° East 446 513 36,200 793 Climbing Fort Worth Center
02:24PM 32.9817 -94.7017 80° East 456 525 37,000 400 Climbing Fort Worth Center
02:25PM 33.0031 -94.5400 81° East 478 550 37,000  Level Fort Worth Center
02:26PM 33.0283 -94.3683 80° East 504 580 37,000  Level Fort Worth Center
02:27PM 33.0364 -94.1919 87° East 525 604 37,000  Level Fort Worth Center
02:28PM 33.0192 -94.0144 97° East 531 611 37,000  Level Fort Worth Center
02:29PM 33.0039 -93.8342 96° East 539 620 37,000  Level Fort Worth Center
02:30PM 32.9903 -93.6539 95° East 539 620 37,000  Level Fort Worth Center
02:31PM 32.9783 -93.4736 94° East 539 620 37,000  Level Fort Worth Center
02:32PM 32.9642 -93.2936 95° East 539 620 37,000  Level Fort Worth Center
02:33PM 32.9542 -93.1133 94° East 539 620 37,000  Level Fort Worth Center
02:34PM 32.9600 -92.9297 88° East 539 620 37,000  Level Fort Worth Center
02:35PM 33.0269 -92.7606 65° Northeast 538 619 37,000  Level Fort Worth Center
02:36PM 33.1022 -92.5978 61° Northeast 538 619 37,000  Level Fort Worth Center
02:37PM 33.1750 -92.4300 63° Northeast 551 634 37,000  Level Fort Worth Center
02:38PM 33.2456 -92.2672 63° Northeast 557 641 37,000  Level Fort Worth Center
02:39PM 33.3411 -92.0458 63° Northeast 565 650 37,000  Level Memphis Center
02:40PM 33.4111 -91.8811 63° Northeast 561 646 37,000  Level Memphis Center
02:41PM 33.4814 -91.7158 63° Northeast 559 643 37,000  Level Memphis Center
02:42PM 33.5542 -91.5450 63° Northeast 558 642 37,000 -48 Level Memphis Center
02:43PM 33.6256 -91.3803 62° Northeast 559 643 36,900 -672 Descending Memphis Center
02:44PM 33.6942 -91.2169 63° Northeast 554 638 35,600 -1,776 Descending Memphis Center
02:45PM 33.7739 -91.0256 63° Northeast 540 621 33,200 -2,032 Descending Memphis Center
02:47PM 33.8347 -90.8797 63° Northeast 528 608 31,400 -2,032 Descending Memphis Center
02:48PM 33.8978 -90.7272 63° Northeast 512 589 29,000 -2,855 Descending Memphis Center
02:49PM 33.9575 -90.5806 64° Northeast 495 570 25,500 -3,871 Descending Memphis Center
02:50PM 34.0244 -90.4203 63° Northeast 466 536 21,000 -3,919 Descending Memphis Center
02:51PM 34.0778 -90.2933 63° Northeast 436 502 17,400 -3,629 Descending Memphis Center
02:52PM 34.1244 -90.1783 64° Northeast 394 453 13,500 -3,000 Descending Memphis Center
02:53PM 34.1647 -90.0786 64° Northeast 344 396 11,200 -2,129 Descending Memphis Center
02:54PM 34.2031 -89.9836 64° Northeast 322 371 9,100 -2,032 Descending Memphis Center
02:55PM 34.2383 -89.8964 64° Northeast 300 345 7,000 -1,935 Descending Memphis Center
02:56PM 34.2772 -89.8025 63° Northeast 277 319 5,100 -1,210 Descending Memphis Center
02:57PM 34.3042 -89.7347 64° Northeast 240 276 4,500 -581 Descending Memphis Center

Login

Don't have an account? Register now (free) for customized features, flight alerts, and more!